Regional Weather Roundup
Issued by NWS

Home | Current Version | Previous Version | Text Only | Print | Product List | Glossary Off
Versions: 1 2 3 4 5 6 7 8 9 10 11 12 13 14 15 16 17 18 19 20 21 22 23 24 25 26 27 28 29 30 31 32 33 34 35 36 37 38 39 40 41 42 43 44 45 46 47 48 49 50

253
ASUS43 KIND 161909
RWRIN

WEATHER ROUNDUP FOR INDIANA
NATIONAL WEATHER SERVICE INDIANAPOLIS IN
200 PM EST TUE JAN 16 2018

NOTE: "FAIR" INDICATES FEW OR NO CLOUDS BELOW 12,000 FEET WITH NO
SIGNIFICANT WEATHER AND/OR OBSTRUCTIONS TO VISIBILITY.

* - STATION DOES NOT REPORT WEATHER SUCH AS PRECIPITATION OR FOG.

+ - STATION NOT QUALITY CONTROLLED BY THE NATIONAL WEATHER SERVICE.
    USE DATA WITH CAUTION...ESPECIALLY DEWPOINT AND RELATIVE
    HUMIDITY OBSERVATIONS.

INZ001>003-010>013-019-020-162000-
NORTHWEST INDIANA

CITY           SKY/WX    TMP DP  RH WIND       PRES   REMARKS
GARY /AIRPORT/ LGT SNOW  25  18  74 W17       30.43F WCI  11
KNOX *+        CLOUDY    12   7  79 SW12      30.44S WCI  -2
LA PORTE +     FAIR      10   4  78 CALM      30.42S
MICHIGAN CITY+ FAIR      21  12  68 CALM      30.43S
MONTICELLO +   LGT SNOW   6   0  73 SW13G18   30.47S WCI -10
RENSSELAER +   LGT SNOW  14   7  73 W13       30.46F WCI   0
VALPARAISO     CLOUDY    18  12  77 W10       30.41F HAZE    WCI   6

$$

LMZ046-743>745-162000-
SOUTHERN LAKE MICHIGAN

STATION/POSITION TIME  TEMP    WIND        PRES    WAVE
                       AIR SEA DIR/SP/G            HT
                 (UTC) (F)     (DEG/KT/KT) (MB)    (FT)
BURNS HARBOR     1901   24     320/ 14/ 21 1030.1
MICHIGAN CITY    1840          130/  6/  7   N/A

$$

INZ004-005-014>016-021>024-162000-
NORTH CENTRAL INDIANA

CITY           SKY/WX    TMP DP  RH WIND       PRES   REMARKS
ELKHART        FAIR       9   1  72 CALM      30.42F
GOSHEN         LGT SNOW   7   1  76 SW12      30.42S WCI  -8
LOGANSPORT +   LGT SNOW   9   3  78 W16       30.48S WCI  -9
PERU/GRISSOM   FLURRIES   6   1  79 SW13      30.45S WCI -10
ROCHESTER +    FAIR      10   3  72 SW10      30.45S WCI  -3
SOUTH BEND     CLOUDY     8   2  76 SW7       30.42F HAZE    WCI  -3
WARSAW +       FLURRIES   9   1  72 SW8       30.43R WCI  -4

$$

INZ006>009-017-018-025>027-162000-
NORTHEAST INDIANA

CITY           SKY/WX    TMP DP  RH WIND       PRES   REMARKS
AUBURN +       PTSUNNY    9   0  66 SW5       30.42F WCI   0
FORT WAYNE     FAIR       5  -2  72 SW12      30.45S WCI -11
HUNTINGTON +   FAIR       5  -4  67 SW8       30.45S WCI  -8
KENDALLVILLE + FAIR       8   0  71 SW9       30.40S WCI  -6

$$

INZ028-029-035-036-043>045-051>053-162000-
WEST CENTRAL INDIANA

CITY           SKY/WX    TMP DP  RH WIND       PRES   REMARKS
CRAWFORDSVL +  FLURRIES   3  -2  78 MISG        N/A
GREENCASTLE +  FLURRIES   5  -4  66 W8        30.52R WCI  -8
LAFAYETTE      CLOUDY     7   1  76 W15       30.50S WCI -10
TERRE HAUTE    CLOUDY     5  -5  63 W10       30.57S WCI -10

$$

INZ030>032-037>040-046>048-054>057-064-065-162000-
CENTRAL INDIANA

CITY           SKY/WX    TMP DP  RH WIND       PRES   REMARKS
COLUMBUS       CLOUDY     9  -2  61 SW9       30.52F WCI  -5
FISHERS *+     CLOUDY     7   1  78 W7        30.49F WCI  -5
FRANKFORT +    LGT SNOW   8   1  75 W15       30.49S WCI -10
INDIANAPOLIS   FLURRIES   4  -3  73 SW16      30.51S WCI -15
-EAGLE CREEK   CLOUDY     5  -3  69 VRB5      30.49S WCI  -4
MARION +       FAIR       3  -3  75 W12       30.47S WCI -13
MT COMFORT *+  CLOUDY     5   0  78 W9        30.49R WCI  -9
SHELBYVILLE    CLOUDY     5  -4  66 W12       30.50F WCI -11
ZIONSVILLE +   LGT SNOW   3  -3  75 SW14      30.48S WCI -15

$$

INZ033-034-041-042-049-050-058-059-162000-
EAST CENTRAL INDIANA

CITY           SKY/WX    TMP DP  RH WIND       PRES   REMARKS
MUNCIE         CLOUDY     6  -3  66 W10       30.45F WCI  -9
RICHMOND +     FAIR       5  -2  72 SW13      30.44S WCI -12

$$

INZ060-061-067>069-081>083-085>088-162000-
SOUTHWEST INDIANA

CITY           SKY/WX    TMP DP  RH WIND       PRES   REMARKS
EVANSVILLE     FAIR       7  -3  64 W9        30.63F WCI  -7
HUNTINGBURG +  FAIR       9  -3  58 W9        30.60S WCI  -4
WASHINGTON +   CLOUDY     4  -6  61 W9        30.61R WCI -10

$$

INZ062-063-066-070>080-084-089>092-162000-
SOUTH CENTRAL AND SOUTHEAST INDIANA

CITY           SKY/WX    TMP DP  RH WIND       PRES   REMARKS
BATESVILLE *+    N/A    N/A N/A N/A MISG        N/A
BEDFORD +      FAIR       7  -4  61 SW7       30.54S WCI  -5
BLOOMINGTON    LGT SNOW   4  -5  66 W9        30.52F WCI -10
FRENCH LICK *+ FAIR       7  -6  56 SW9       30.55S WCI  -7
MADISON *+     FAIR      10   0  61 SW8       30.53S WCI  -1
NORTH VERNON + FAIR       5  -4  66 W9        30.53S WCI  -9
SEYMOUR +      FAIR      10  -4  52 W9        30.54F WCI  -2

$$





USA.gov is the U.S. government's official web portal to all federal, state and local government web resources and services.